Location: Cabrera Baja
(40.4089°N, 4.3354°W)
Time: 02:43:00
(UTC+00:00)

Cosmos 2233 Rocket - Pass Details

Date: 14 July 2020
Orbit: 954 x 989 km, 82.9° (Epoch: 03 August)

Event Time Altitude Azimuth Distance (km) Brightness Sun altitude
Exits shadow 02:39:39 32° 186° (S) 1,592 4.6 -20.3°
Maximum altitude 02:42:45 90° 286° (WNW) 976 3.9 -20.0°
Drops below altitude 10° 02:49:01 10° 7° (N) 2,733 7.2 -19.3°
Sets 02:51:33 0° 8° (N) 3,690 8.1 -19.0°
